Location: Fort Worth, Tx
(32.7431°N, 97.3695°W)
Time: 18:46:11
(UTC-04:00)

Transit 4A - Pass Details

Date: 08 March 2024
Orbit: 871 x 972 km, 66.8° (Epoch: 21 April)

Event Time Altitude Azimuth Distance (km) Brightness Sun altitude
Rises 07:47:22 0° 352° (N) 3,474 10.8 -1.0°
Reaches altitude 10° 07:51:00 10° 14° (NNE) 2,524 10.3 -0.2°
Maximum altitude 07:54:22 16° 50° (NE) 2,144 10.5 0.5°
Drops below altitude 10° 07:57:44 10° 86° (E) 2,516 12.3 1.2°
Sets 08:01:19 0° 108° (ESE) 3,456 13.1 2.0°
